Year,Month,Day,Hour,Minute,Value (Times are PST for temperature in C)
2020,07,27,11,33,21.30
2020,07,27,11,34,21.40
2020,07,27,11,35,21.40
2020,07,27,11,36,21.40
2020,07,27,11,37,21.40
2020,07,27,11,38,21.40
2020,07,27,11,39,21.30
2020,07,27,11,40,21.30
2020,07,27,11,41,21.30
2020,07,27,11,42,21.30
2020,07,27,11,43,21.30
2020,07,27,11,44,21.50
2020,07,27,11,45,21.60
2020,07,27,11,46,21.70
2020,07,27,11,47,21.80
2020,07,27,11,48,21.80
2020,07,27,11,49,21.80
2020,07,27,11,50,21.80
2020,07,27,11,51,21.80
2020,07,27,11,52,21.70
2020,07,27,11,53,21.60
2020,07,27,11,54,21.60
2020,07,27,11,55,21.60
2020,07,27,11,56,21.60
2020,07,27,11,57,21.70
2020,07,27,11,58,21.70
2020,07,27,11,59,21.60
2020,07,27,12,00,21.70
2020,07,27,12,01,21.70
2020,07,27,12,02,21.70
2020,07,27,12,03,21.80
2020,07,27,12,04,21.80
2020,07,27,12,05,21.80
2020,07,27,12,06,21.80
2020,07,27,12,07,21.70
2020,07,27,12,08,21.60
2020,07,27,12,09,21.60
2020,07,27,12,10,21.60
2020,07,27,12,11,21.60
2020,07,27,12,12,21.70
2020,07,27,12,13,21.70
2020,07,27,12,14,21.80
2020,07,27,12,15,21.80
2020,07,27,12,16,21.90
2020,07,27,12,17,21.90
2020,07,27,12,18,21.90
2020,07,27,12,19,21.90
2020,07,27,12,20,22.10
2020,07,27,12,21,22.20
2020,07,27,12,22,22.30
2020,07,27,12,23,22.40
2020,07,27,12,24,22.40
2020,07,27,12,25,22.30
2020,07,27,12,26,22.30
2020,07,27,12,27,22.40
2020,07,27,12,28,22.50
2020,07,27,12,29,22.50
2020,07,27,12,30,22.50
2020,07,27,12,31,22.40
2020,07,27,12,32,22.40
2020,07,27,12,33,22.30
2020,07,27,12,34,22.20
2020,07,27,12,35,22.10
2020,07,27,12,36,22.00
2020,07,27,12,37,21.90
2020,07,27,12,38,21.90
2020,07,27,12,39,21.90
2020,07,27,12,40,21.90
2020,07,27,12,41,22.00
2020,07,27,12,42,22.10
2020,07,27,12,43,22.20
2020,07,27,12,44,22.20
2020,07,27,12,45,22.30
2020,07,27,12,46,22.30
2020,07,27,12,47,22.40
2020,07,27,12,48,22.40
2020,07,27,12,49,22.40
2020,07,27,12,50,22.50
2020,07,27,12,51,22.60
2020,07,27,12,52,22.70
2020,07,27,12,53,22.80
2020,07,27,12,54,22.80
2020,07,27,12,55,22.80
2020,07,27,12,56,22.80
2020,07,27,12,57,22.80
2020,07,27,12,58,22.80
2020,07,27,12,59,22.80
2020,07,27,13,00,22.90
2020,07,27,13,01,23.00
2020,07,27,13,02,23.10
2020,07,27,13,03,23.20
2020,07,27,13,04,23.10
2020,07,27,13,05,23.10
2020,07,27,13,06,23.10
2020,07,27,13,07,23.10
2020,07,27,13,08,23.00
2020,07,27,13,09,22.90
2020,07,27,13,10,22.90
2020,07,27,13,11,22.80
2020,07,27,13,12,22.70
2020,07,27,13,13,22.60
2020,07,27,13,14,22.40
2020,07,27,13,15,22.30
2020,07,27,13,16,22.30
2020,07,27,13,17,22.30
2020,07,27,13,18,22.30
2020,07,27,13,19,22.30
2020,07,27,13,20,22.40
2020,07,27,13,21,22.50
2020,07,27,13,22,22.60
2020,07,27,13,23,22.60
2020,07,27,13,24,22.60
2020,07,27,13,25,22.50
2020,07,27,13,26,22.50
2020,07,27,13,27,22.60
2020,07,27,13,28,22.60
2020,07,27,13,29,22.40
2020,07,27,13,30,22.40
2020,07,27,13,31,22.30
2020,07,27,13,32,22.30
2020,07,27,13,33,22.40
2020,07,27,13,34,22.40
2020,07,27,13,35,22.40
2020,07,27,13,36,22.30
2020,07,27,13,37,22.20
2020,07,27,13,38,22.20
2020,07,27,13,39,22.30
2020,07,27,13,40,22.30
2020,07,27,13,41,22.40
2020,07,27,13,42,22.50
2020,07,27,13,43,22.70
2020,07,27,13,44,22.90
2020,07,27,13,45,22.90
2020,07,27,13,46,22.90
2020,07,27,13,47,22.80
2020,07,27,13,48,22.80
2020,07,27,13,49,22.70
2020,07,27,13,50,22.60
2020,07,27,13,51,22.50
2020,07,27,13,52,22.40
2020,07,27,13,53,22.40
2020,07,27,13,54,22.40
2020,07,27,13,55,22.40
2020,07,27,13,56,22.50
2020,07,27,13,57,22.60
2020,07,27,13,58,22.70
2020,07,27,13,59,22.80
2020,07,27,14,00,22.90
2020,07,27,14,01,23.00
2020,07,27,14,02,23.00
2020,07,27,14,03,23.00
2020,07,27,14,04,23.00
2020,07,27,14,05,23.00
2020,07,27,14,06,23.00
2020,07,27,14,07,23.00
2020,07,27,14,08,23.10
2020,07,27,14,09,23.20
2020,07,27,14,10,23.20
2020,07,27,14,11,23.20
2020,07,27,14,12,23.10
2020,07,27,14,13,23.10
2020,07,27,14,14,23.00
2020,07,27,14,15,23.00
2020,07,27,14,16,23.00
2020,07,27,14,17,23.10
2020,07,27,14,18,23.10
2020,07,27,14,19,23.10
2020,07,27,14,20,23.20
2020,07,27,14,21,23.20
2020,07,27,14,22,23.20
2020,07,27,14,23,23.20
2020,07,27,14,24,23.20
2020,07,27,14,25,23.30
2020,07,27,14,26,23.30
2020,07,27,14,27,23.40
2020,07,27,14,28,23.30
2020,07,27,14,29,23.20
2020,07,27,14,30,23.10
2020,07,27,14,31,22.90
2020,07,27,14,32,22.90
2020,07,27,14,33,22.80
2020,07,27,14,34,22.70
2020,07,27,14,35,22.70
2020,07,27,14,36,22.70
2020,07,27,14,37,22.80
2020,07,27,14,38,22.80
2020,07,27,14,39,22.80
2020,07,27,14,40,22.80
2020,07,27,14,41,22.90
2020,07,27,14,42,22.90
2020,07,27,14,43,22.90
2020,07,27,14,44,22.90
2020,07,27,14,45,22.80
2020,07,27,14,46,22.70
2020,07,27,14,47,22.70
2020,07,27,14,48,22.60
2020,07,27,14,49,22.60
2020,07,27,14,50,22.70
2020,07,27,14,51,22.80
2020,07,27,14,52,23.00
2020,07,27,14,53,23.20
2020,07,27,14,54,23.30
2020,07,27,14,55,23.40
2020,07,27,14,56,23.40
2020,07,27,14,57,23.50
2020,07,27,14,58,23.60
2020,07,27,14,59,23.70
2020,07,27,15,00,23.80
2020,07,27,15,01,23.90
2020,07,27,15,02,24.00
2020,07,27,15,03,24.10
2020,07,27,15,04,24.00
2020,07,27,15,05,23.80
2020,07,27,15,06,23.70
2020,07,27,15,07,23.70
2020,07,27,15,08,23.70
2020,07,27,15,09,23.60
2020,07,27,15,10,23.70
2020,07,27,15,11,23.70
2020,07,27,15,12,23.70
2020,07,27,15,13,23.70
2020,07,27,15,14,23.70
2020,07,27,15,15,23.80
2020,07,27,15,16,23.90
2020,07,27,15,17,23.90
2020,07,27,15,18,24.00
2020,07,27,15,19,24.00
2020,07,27,15,20,23.90
2020,07,27,15,21,23.90
2020,07,27,15,22,23.80
2020,07,27,15,23,23.50
2020,07,27,15,24,23.40
2020,07,27,15,25,23.20
2020,07,27,15,26,23.00
2020,07,27,15,27,22.80
2020,07,27,15,28,22.50
2020,07,27,15,29,22.30
2020,07,27,15,30,22.20
2020,07,27,15,31,22.10
2020,07,27,15,32,21.90
2020,07,27,15,33,21.90
2020,07,27,15,34,21.90
2020,07,27,15,35,22.00
2020,07,27,15,36,22.10
2020,07,27,15,37,22.30
2020,07,27,15,38,22.40
2020,07,27,15,39,22.40
2020,07,27,15,40,22.40
2020,07,27,15,41,22.30
2020,07,27,15,42,22.30
2020,07,27,15,43,22.20
2020,07,27,15,44,22.20
2020,07,27,15,45,22.20
2020,07,27,15,46,22.20
2020,07,27,15,47,22.20
2020,07,27,15,48,22.20
2020,07,27,15,49,22.30
2020,07,27,15,50,22.40
2020,07,27,15,51,22.50
2020,07,27,15,52,22.50
2020,07,27,15,53,22.40
2020,07,27,15,54,22.40
2020,07,27,15,55,22.30
2020,07,27,15,56,22.30
2020,07,27,15,57,22.40
2020,07,27,15,58,22.40
2020,07,27,15,59,22.40
2020,07,27,16,00,22.40
2020,07,27,16,01,22.40
2020,07,27,16,02,22.40
2020,07,27,16,03,22.40
2020,07,27,16,04,22.30
2020,07,27,16,05,22.30
2020,07,27,16,06,22.30
2020,07,27,16,07,22.40
2020,07,27,16,08,22.40
2020,07,27,16,09,22.50
2020,07,27,16,10,22.50
2020,07,27,16,11,22.50
2020,07,27,16,12,22.60
2020,07,27,16,13,22.50
2020,07,27,16,14,22.40
2020,07,27,16,15,22.40
2020,07,27,16,16,22.30
2020,07,27,16,17,22.30
2020,07,27,16,18,22.30
2020,07,27,16,19,22.30
2020,07,27,16,20,22.30
2020,07,27,16,21,22.40
2020,07,27,16,22,22.50
2020,07,27,16,23,22.60
2020,07,27,16,24,22.60
2020,07,27,16,25,22.60
2020,07,27,16,26,22.60
2020,07,27,16,27,22.60
2020,07,27,16,28,22.60
2020,07,27,16,29,22.70
2020,07,27,16,30,22.70
2020,07,27,16,31,22.70
2020,07,27,16,32,22.80
2020,07,27,16,33,22.80
2020,07,27,16,34,22.90
2020,07,27,16,35,23.10
2020,07,27,16,36,23.10
2020,07,27,16,37,23.30
2020,07,27,16,38,23.40
2020,07,27,16,39,23.50
2020,07,27,16,40,23.60
2020,07,27,16,41,23.80
2020,07,27,16,42,23.90
2020,07,27,16,43,24.00
2020,07,27,16,44,24.10
2020,07,27,16,45,24.00
2020,07,27,16,46,24.00
2020,07,27,16,47,23.90
2020,07,27,16,48,23.80
2020,07,27,16,49,23.80
2020,07,27,16,50,23.80
2020,07,27,16,51,23.70
2020,07,27,16,52,23.70
2020,07,27,16,53,23.60
2020,07,27,16,54,23.50
2020,07,27,16,55,23.50
2020,07,27,16,56,23.50
2020,07,27,16,57,23.60
2020,07,27,16,58,23.60
2020,07,27,16,59,23.60
2020,07,27,17,00,23.60
2020,07,27,17,01,23.60
2020,07,27,17,02,23.60
2020,07,27,17,03,23.50
2020,07,27,17,04,23.50
2020,07,27,17,05,23.40
2020,07,27,17,06,23.40
2020,07,27,17,07,23.30
2020,07,27,17,08,23.30
2020,07,27,17,09,23.20
2020,07,27,17,10,23.10
2020,07,27,17,11,23.00
2020,07,27,17,12,22.80
2020,07,27,17,13,22.80
2020,07,27,17,14,22.70
2020,07,27,17,15,22.50
2020,07,27,17,16,22.40
2020,07,27,17,17,22.40
2020,07,27,17,18,22.30
2020,07,27,17,19,22.30
2020,07,27,17,20,22.20
2020,07,27,17,21,22.00
2020,07,27,17,22,21.70
2020,07,27,17,23,21.50
2020,07,27,17,24,21.40
2020,07,27,17,25,21.20
2020,07,27,17,26,21.20
2020,07,27,17,27,21.20
2020,07,27,17,28,21.10
2020,07,27,17,29,21.10
2020,07,27,17,30,21.00
2020,07,27,17,31,21.00
2020,07,27,17,32,20.90
2020,07,27,17,33,20.80
2020,07,27,17,34,20.60
2020,07,27,17,35,20.50
2020,07,27,17,36,20.30
2020,07,27,17,37,20.20
2020,07,27,17,38,20.10
2020,07,27,17,39,20.10
2020,07,27,17,40,20.10
2020,07,27,17,41,20.00
2020,07,27,17,42,20.00
2020,07,27,17,43,19.80
2020,07,27,17,44,19.60
2020,07,27,17,45,19.40
2020,07,27,17,46,19.30
2020,07,27,17,47,19.10
2020,07,27,17,48,19.00
2020,07,27,17,49,18.90
2020,07,27,17,50,18.80
2020,07,27,17,51,18.80
2020,07,27,17,52,18.70
2020,07,27,17,53,18.60
2020,07,27,17,54,18.60
2020,07,27,17,55,18.60
2020,07,27,17,56,18.60
2020,07,27,17,57,18.70
2020,07,27,17,58,18.70
2020,07,27,17,59,18.70
2020,07,27,18,00,18.70
2020,07,27,18,01,18.70
2020,07,27,18,02,18.60
2020,07,27,18,03,18.60
2020,07,27,18,04,18.60
2020,07,27,18,05,18.60
2020,07,27,18,06,18.50
2020,07,27,18,07,18.40
2020,07,27,18,08,18.40
2020,07,27,18,09,18.40
2020,07,27,18,10,18.20
2020,07,27,18,11,18.10
2020,07,27,18,12,18.00
2020,07,27,18,13,17.90
2020,07,27,18,14,17.90
2020,07,27,18,15,17.90
2020,07,27,18,16,18.00
2020,07,27,18,17,18.00
2020,07,27,18,18,17.90
2020,07,27,18,19,17.90
2020,07,27,18,20,17.90
2020,07,27,18,21,17.90
2020,07,27,18,22,17.80
2020,07,27,18,23,17.80
2020,07,27,18,24,17.80
2020,07,27,18,25,17.80
2020,07,27,18,26,17.90
2020,07,27,18,27,18.00
2020,07,27,18,28,18.00
2020,07,27,18,29,18.00
2020,07,27,18,30,18.00
2020,07,27,18,31,18.00
2020,07,27,18,32,18.10
2020,07,27,18,33,18.10
2020,07,27,18,34,18.20
2020,07,27,18,35,18.30
2020,07,27,18,36,18.40
2020,07,27,18,37,18.50
2020,07,27,18,38,18.60
2020,07,27,18,39,18.60
2020,07,27,18,40,18.60
2020,07,27,18,41,18.70
2020,07,27,18,42,18.80
2020,07,27,18,43,18.90
2020,07,27,18,44,19.00
2020,07,27,18,45,19.10
2020,07,27,18,46,19.20
2020,07,27,18,47,19.40
2020,07,27,18,48,19.50
2020,07,27,18,49,19.60
2020,07,27,18,50,19.70
2020,07,27,18,51,19.70
2020,07,27,18,52,19.80
2020,07,27,18,53,19.80
2020,07,27,18,54,19.80
2020,07,27,18,55,19.80
2020,07,27,18,56,19.70
2020,07,27,18,57,19.70
2020,07,27,18,58,19.70
2020,07,27,18,59,19.80
2020,07,27,19,00,19.80
2020,07,27,19,01,20.00
2020,07,27,19,02,20.10
2020,07,27,19,03,20.10
2020,07,27,19,04,20.30
2020,07,27,19,05,20.30
2020,07,27,19,06,20.40
2020,07,27,19,07,20.50
2020,07,27,19,08,20.60
2020,07,27,19,09,20.70
2020,07,27,19,10,20.70
2020,07,27,19,11,20.70
2020,07,27,19,12,20.70
2020,07,27,19,13,20.80
2020,07,27,19,14,20.80
2020,07,27,19,15,20.80
2020,07,27,19,16,20.80
2020,07,27,19,17,20.90
2020,07,27,19,18,20.90
2020,07,27,19,19,21.00
2020,07,27,19,20,21.10
2020,07,27,19,21,21.10
2020,07,27,19,22,21.10
2020,07,27,19,23,21.20
2020,07,27,19,24,21.20
2020,07,27,19,25,21.20
2020,07,27,19,26,21.10
2020,07,27,19,27,21.10
2020,07,27,19,28,21.10
2020,07,27,19,29,21.10
2020,07,27,19,30,21.10
2020,07,27,19,31,21.20
2020,07,27,19,32,21.20
2020,07,27,19,33,21.20
2020,07,27,19,34,21.20
2020,07,27,19,35,21.10
2020,07,27,19,36,21.00
2020,07,27,19,37,20.90
2020,07,27,19,38,20.90
2020,07,27,19,39,20.80
2020,07,27,19,40,20.80
2020,07,27,19,41,20.80
2020,07,27,19,42,20.70
2020,07,27,19,43,20.70
2020,07,27,19,44,20.60
2020,07,27,19,45,20.60
2020,07,27,19,46,20.60
2020,07,27,19,47,20.60
2020,07,27,19,48,20.60
2020,07,27,19,49,20.60
2020,07,27,19,50,20.60
2020,07,27,19,51,20.70
2020,07,27,19,52,20.70
2020,07,27,19,53,20.70
2020,07,27,19,54,20.80
2020,07,27,19,55,20.80
2020,07,27,19,56,20.90
2020,07,27,19,57,20.90
2020,07,27,19,58,20.90
2020,07,27,19,59,21.00
2020,07,27,20,00,21.00
2020,07,27,20,01,20.90
2020,07,27,20,02,20.90
2020,07,27,20,03,20.90
2020,07,27,20,04,20.90
2020,07,27,20,05,20.90
2020,07,27,20,06,20.80
2020,07,27,20,07,20.70
2020,07,27,20,08,20.70
2020,07,27,20,09,20.60
2020,07,27,20,10,20.50
2020,07,27,20,11,20.40
2020,07,27,20,12,20.30
2020,07,27,20,13,20.30
2020,07,27,20,14,20.20
2020,07,27,20,15,20.20
2020,07,27,20,16,20.10
2020,07,27,20,17,20.10
2020,07,27,20,18,20.00
2020,07,27,20,19,19.90
2020,07,27,20,20,19.80
2020,07,27,20,21,19.80
2020,07,27,20,22,19.70
2020,07,27,20,23,19.60
2020,07,27,20,24,19.60
2020,07,27,20,25,19.40
2020,07,27,20,26,19.30
2020,07,27,20,27,19.20
2020,07,27,20,28,19.10
2020,07,27,20,29,19.00
2020,07,27,20,30,18.90
2020,07,27,20,31,18.80
2020,07,27,20,32,18.70
2020,07,27,20,33,18.60
2020,07,27,20,34,18.50
2020,07,27,20,35,18.50
2020,07,27,20,36,18.40
2020,07,27,20,37,18.40
2020,07,27,20,38,18.30
2020,07,27,20,39,18.30
2020,07,27,20,40,18.30
2020,07,27,20,41,18.30
2020,07,27,20,42,18.30
2020,07,27,20,43,18.30
2020,07,27,20,44,18.30
2020,07,27,20,45,18.30
2020,07,27,20,46,18.30
2020,07,27,20,47,18.30
2020,07,27,20,48,18.30
